Location: Milton Keynes
(52.0316°N, 0.7531°W)
Time: 09:15:07
(UTC+00:00)

Genesis I - Pass Details

Date: 01 February 2019
Orbit: 476 x 550 km, 64.5° (Epoch: 15 February)

Event Time Altitude Azimuth Distance (km) Brightness Sun altitude
Exits shadow 04:18:30 15° 30° (NNE) 1,531 6.0 -31.5°
Drops below altitude 10° 04:19:21 10° 35° (NE) 1,837 6.5 -31.4°
Sets 04:21:40 0° 42° (NE) 2,734 7.6 -31.0°
